This is the latest recevied weather packets stored in our database for station/object YF9UAG-16. If no packets are shown the sender has not sent any weather packets the latest 1 day(s).
| Time | Temp. | Humidity | Pressure | Rain* | Wind** | Luminosity | Snow |
|---|---|---|---|---|---|---|---|
| 1778038860 | 31.67° C | 56% | 1007 hPa | - | 0 m/s | 0 W/m² | - |
| 1778038538 | 31.67° C | 58% | 1007 hPa | - | 0 m/s | 0 W/m² | - |
| 1778038216 | 30.56° C | 57% | 1007 hPa | - | 0 m/s | 0 W/m² | - |
| 1778037894 | 30.56° C | 58% | 1007 hPa | - | 0 m/s | 0 W/m² | - |
| 1778037572 | 30.56° C | 59% | 1007 hPa | - | 0 m/s | 0 W/m² | - |
| 1778037250 | 30° C | 57% | 1007 hPa | - | 0 m/s | 0 W/m² | - |
| 1778036928 | 30.56° C | 58% | 1007 hPa | - | 0 m/s | 0 W/m² | - |
| 1778036606 | 30° C | 58% | 1008 hPa | - | 0 m/s | 0 W/m² | - |
| 1778036284 | 29.44° C | 59% | 1008 hPa | - | 0 m/s | 0 W/m² | - |
| 1778035962 | 28.89° C | 62% | 1008 hPa | - | 0 m/s | 0 W/m² | - |
| 1778035640 | 29.44° C | 61% | 1008 hPa | - | 0 m/s | 0 W/m² | - |
| 1778035318 | 28.33° C | 62% | 1008 hPa | - | 0 m/s | 0 W/m² | - |
| 1778034996 | 29.44° C | 62% | 1008 hPa | - | 0 m/s | 0 W/m² | - |
| 1778034674 | 28.33° C | 62% | 1008 hPa | - | 0 m/s | 0 W/m² | - |
| 1778034352 | 28.89° C | 63% | 1008 hPa | - | 0 m/s | 0 W/m² | - |
| 1778034031 | 28.33° C | 62% | 1008 hPa | - | 0 m/s | 0 W/m² | - |
| 1778033708 | 28.33° C | 63% | 1008 hPa | - | 0 m/s | 0 W/m² | - |
| 1778033386 | 27.78° C | 64% | 1008 hPa | - | 0 m/s | 0 W/m² | - |
| 1778033064 | 27.78° C | 65% | 1009 hPa | - | 0 m/s | 0 W/m² | - |
| 1778032742 | 27.78° C | 64% | 1009 hPa | - | 0 m/s | 0 W/m² | - |
| 1778032420 | 27.78° C | 63% | 1009 hPa | - | 0 m/s | 0 W/m² | - |
| 1778032098 | 28.33° C | 62% | 1009 hPa | - | 0 m/s | 0 W/m² | - |
| 1778031776 | 27.78° C | 64% | 1009 hPa | - | 0 m/s | 0 W/m² | - |
| 1778031454 | 28.33° C | 65% | 1009 hPa | - | 0 m/s | 0 W/m² | - |
| 1778031132 | 28.33° C | 67% | 1009 hPa | - | 0 m/s | 0 W/m² | - |
* Rain since midnight (hover to see other rain measurements)
** Current wind speed in m/s (hover to see current wind gust speed)